• In Belgien
  • Länderverzeichnis
  • Für 7 Tage
  • Wassertemperatur
  • Satellitenkarten
  • Wetterkarte
  • Widgets
  • user-avatar
    Anmelden

    Stündliche Wetter Dinant

    Heute, 25 Mai, Freitag

    Zeit Temperatur Niederschläge Wind Luftdruck Luftfeuchtigkeit
    00:00 +15°C° 0 mm 1 m/S 748 mmHg 93%
    01:00 +14°C° 0 mm 1 m/S 748 mmHg 93%
    02:00 +14°C° 0 mm 1 m/S 748 mmHg 93%
    03:00 +14°C° 0 mm 1 m/S 748 mmHg 93%
    04:00 +15°C° 0 mm 1 m/S 748 mmHg 93%
    05:00 +16°C° 0 mm 1 m/S 748 mmHg 92%
    06:00 +16°C° 0 mm 1 m/S 749 mmHg 90%
    07:00 +19°C° 0 mm 1 m/S 749 mmHg 83%
    08:00 +21°C° 0 mm 1 m/S 749 mmHg 76%
    09:00 +23°C° 0 mm 1 m/S 749 mmHg 68%
    10:00 +24°C° 0 mm 1 m/S 749 mmHg 64%
    11:00 +25°C° 0 mm 1 m/S 749 mmHg 59%
    12:00 +26°C° 0 mm 1 m/S 749 mmHg 54%
    13:00 +24°C° 0,1 mm 0 m/S 749 mmHg 56%
    14:00 +24°C° 0,1 mm 0 m/S 749 mmHg 57%
    15:00 +24°C° 0,1 mm 0 m/S 748 mmHg 59%
    16:00 +25°C° 0,2 mm 1 m/S 748 mmHg 64%
    17:00 +24°C° 0,2 mm 1 m/S 748 mmHg 69%
    18:00 +23°C° 0,2 mm 1 m/S 748 mmHg 75%
    19:00 +22°C° 0 mm 1 m/S 749 mmHg 77%
    20:00 +20°C° 0 mm 1 m/S 749 mmHg 80%
    21:00 +19°C° 0 mm 1 m/S 749 mmHg 82%
    22:00 +18°C° 0 mm 1 m/S 749 mmHg 83%
    23:00 +18°C° 0 mm 1 m/S 749 mmHg 84%

    Morgen, 26 Mai, Samstag

    Zeit Temperatur Niederschläge Wind Luftdruck Luftfeuchtigkeit
    00:00 +16°C° 0 mm 1 m/S 749 mmHg 85%
    01:00 +16°C° 0 mm 1 m/S 749 mmHg 86%
    02:00 +16°C° 0 mm 2 m/S 749 mmHg 87%
    03:00 +15°C° 0 mm 2 m/S 749 mmHg 88%
    04:00 +17°C° 0 mm 2 m/S 749 mmHg 86%
    05:00 +18°C° 0 mm 2 m/S 749 mmHg 84%
    06:00 +19°C° 0 mm 2 m/S 749 mmHg 83%
    07:00 +21°C° 0 mm 2 m/S 750 mmHg 77%
    08:00 +24°C° 0 mm 3 m/S 750 mmHg 70%
    09:00 +26°C° 0 mm 3 m/S 750 mmHg 64%
    10:00 +26°C° 0 mm 3 m/S 750 mmHg 61%
    11:00 +27°C° 0 mm 3 m/S 750 mmHg 58%
    12:00 +28°C° 0 mm 3 m/S 750 mmHg 56%
    13:00 +28°C° 0 mm 3 m/S 749 mmHg 56%
    14:00 +29°C° 0 mm 3 m/S 749 mmHg 57%
    15:00 +29°C° 0 mm 3 m/S 749 mmHg 58%
    16:00 +28°C° 0 mm 3 m/S 749 mmHg 64%
    17:00 +27°C° 0 mm 2 m/S 749 mmHg 69%
    18:00 +26°C° 0 mm 2 m/S 749 mmHg 75%
    19:00 +25°C° 0 mm 3 m/S 749 mmHg 77%
    20:00 +22°C° 0 mm 3 m/S 749 mmHg 78%
    21:00 +21°C° 0 mm 3 m/S 749 mmHg 79%
    22:00 +20°C° 0 mm 3 m/S 749 mmHg 80%
    23:00 +20°C° 0 mm 3 m/S 749 mmHg 81%

    übermorgen, 27 Mai, Sonntag

    Zeit Temperatur Niederschläge Wind Luftdruck Luftfeuchtigkeit
    00:00 +19°C° 0 mm 3 m/S 749 mmHg 82%
    01:00 +19°C° 0 mm 3 m/S 749 mmHg 84%
    02:00 +18°C° 0 mm 2 m/S 749 mmHg 86%
    03:00 +18°C° 0 mm 2 m/S 748 mmHg 88%
    04:00 +18°C° 0 mm 2 m/S 748 mmHg 86%
    05:00 +19°C° 0 mm 3 m/S 749 mmHg 84%
    06:00 +20°C° 0 mm 3 m/S 749 mmHg 83%
    07:00 +22°C° 0 mm 3 m/S 749 mmHg 78%
    08:00 +25°C° 0 mm 3 m/S 748 mmHg 74%
    09:00 +26°C° 0 mm 3 m/S 748 mmHg 69%
    10:00 +26°C° 1,6 mm 3 m/S 748 mmHg 72%
    11:00 +25°C° 1,6 mm 4 m/S 748 mmHg 76%
    12:00 +25°C° 1,6 mm 4 m/S 748 mmHg 79%
    13:00 +25°C° 0,4 mm 3 m/S 748 mmHg 80%
    14:00 +24°C° 0,4 mm 3 m/S 747 mmHg 80%
    15:00 +23°C° 0,4 mm 2 m/S 747 mmHg 81%
    16:00 +23°C° 0 mm 2 m/S 747 mmHg 81%
    17:00 +24°C° 0 mm 2 m/S 747 mmHg 81%
    18:00 +24°C° 0 mm 2 m/S 747 mmHg 81%
    19:00 +21°C° 0,4 mm 2 m/S 747 mmHg 83%
    20:00 +20°C° 0,4 mm 2 m/S 748 mmHg 86%
    21:00 +19°C° 0,4 mm 2 m/S 748 mmHg 88%
    22:00 +19°C° 0 mm 2 m/S 748 mmHg 88%
    23:00 +18°C° 0 mm 2 m/S 747 mmHg 87%

    28 Mai, Montag

    Zeit Temperatur Niederschläge Wind Luftdruck Luftfeuchtigkeit
    00:00 +18°C° 0 mm 2 m/S 747 mmHg 87%
    01:00 +18°C° 0,1 mm 2 m/S 747 mmHg 87%
    02:00 +19°C° 0,1 mm 1 m/S 747 mmHg 88%
    03:00 +18°C° 0,1 mm 1 m/S 747 mmHg 89%
    04:00 +19°C° 0,2 mm 1 m/S 748 mmHg 88%
    05:00 +20°C° 0,2 mm 1 m/S 748 mmHg 87%
    06:00 +21°C° 0,2 mm 1 m/S 748 mmHg 86%
    07:00 +23°C° 0,3 mm 2 m/S 748 mmHg 82%
    08:00 +25°C° 0,3 mm 2 m/S 748 mmHg 77%
    09:00 +27°C° 0,3 mm 2 m/S 748 mmHg 72%
    10:00 +27°C° 0,7 mm 2 m/S 748 mmHg 69%
    11:00 +28°C° 0,7 mm 2 m/S 748 mmHg 66%
    12:00 +29°C° 0,7 mm 3 m/S 748 mmHg 63%
    13:00 +29°C° 0,3 mm 2 m/S 747 mmHg 64%
    14:00 +28°C° 0,3 mm 2 m/S 747 mmHg 64%
    15:00 +28°C° 0,3 mm 1 m/S 747 mmHg 65%
    16:00 +27°C° 0 mm 1 m/S 747 mmHg 69%
    17:00 +27°C° 0 mm 2 m/S 747 mmHg 72%
    18:00 +26°C° 0 mm 2 m/S 746 mmHg 75%
    19:00 +25°C° 1,2 mm 2 m/S 746 mmHg 80%
    20:00 +23°C° 1,2 mm 2 m/S 747 mmHg 85%
    21:00 +20°C° 1,2 mm 2 m/S 747 mmHg 91%
    22:00 +20°C° 0,3 mm 2 m/S 747 mmHg 91%
    23:00 +20°C° 0,3 mm 2 m/S 746 mmHg 91%

    29 Mai, Dienstag

    Zeit Temperatur Niederschläge Wind Luftdruck Luftfeuchtigkeit
    00:00 +20°C° 0,3 mm 1 m/S 746 mmHg 91%
    01:00 +20°C° 0,1 mm 1 m/S 746 mmHg 92%
    02:00 +20°C° 0,1 mm 1 m/S 746 mmHg 92%
    03:00 +19°C° 0,1 mm 1 m/S 745 mmHg 92%
    04:00 +20°C° 0,1 mm 1 m/S 745 mmHg 91%
    05:00 +21°C° 0,1 mm 1 m/S 745 mmHg 90%
    06:00 +22°C° 0,1 mm 1 m/S 745 mmHg 88%
    07:00 +24°C° 0,4 mm 1 m/S 745 mmHg 84%
    08:00 +25°C° 0,4 mm 1 m/S 745 mmHg 79%
    09:00 +27°C° 0,4 mm 1 m/S 745 mmHg 74%
    10:00 +28°C° 0,4 mm 1 m/S 745 mmHg 70%
    11:00 +28°C° 0,4 mm 1 m/S 745 mmHg 65%
    12:00 +29°C° 0,4 mm 1 m/S 745 mmHg 60%
    13:00 +29°C° 0,3 mm 1 m/S 744 mmHg 60%
    14:00 +29°C° 0,3 mm 1 m/S 744 mmHg 59%
    15:00 +30°C° 0,3 mm 1 m/S 744 mmHg 58%
    16:00 +27°C° 0,5 mm 0 m/S 744 mmHg 64%
    17:00 +26°C° 0,5 mm 0 m/S 744 mmHg 70%
    18:00 +25°C° 0,5 mm 0 m/S 744 mmHg 76%
    19:00 +25°C° 0,7 mm 1 m/S 744 mmHg 80%
    20:00 +23°C° 0,7 mm 1 m/S 744 mmHg 83%
    21:00 +22°C° 0,7 mm 1 m/S 744 mmHg 86%
    22:00 +21°C° 0,8 mm 1 m/S 744 mmHg 88%
    23:00 +21°C° 0,8 mm 1 m/S 744 mmHg 90%

    30 Mai, Mittwoch

    Zeit Temperatur Niederschläge Wind Luftdruck Luftfeuchtigkeit
    00:00 +20°C° 0,8 mm 1 m/S 744 mmHg 91%
    01:00 +20°C° 0 mm 1 m/S 744 mmHg 91%
    02:00 +19°C° 0 mm 1 m/S 743 mmHg 91%
    03:00 +19°C° 0 mm 1 m/S 743 mmHg 92%
    04:00 +20°C° 0 mm 1 m/S 743 mmHg 91%
    05:00 +21°C° 0 mm 1 m/S 744 mmHg 91%
    06:00 +20°C° 0 mm 2 m/S 744 mmHg 91%
    07:00 +23°C° 0 mm 2 m/S 744 mmHg 85%
    08:00 +24°C° 0 mm 2 m/S 744 mmHg 80%
    09:00 +25°C° 0 mm 2 m/S 744 mmHg 74%
    10:00 +26°C° 0 mm 2 m/S 744 mmHg 71%
    11:00 +27°C° 0 mm 2 m/S 744 mmHg 68%
    12:00 +28°C° 0 mm 2 m/S 744 mmHg 65%
    13:00 +28°C° 0,2 mm 2 m/S 744 mmHg 66%
    14:00 +28°C° 0,2 mm 2 m/S 744 mmHg 67%
    15:00 +27°C° 0,2 mm 2 m/S 743 mmHg 68%
    16:00 +27°C° 0,8 mm 2 m/S 743 mmHg 74%
    17:00 +26°C° 0,8 mm 2 m/S 744 mmHg 79%
    18:00 +25°C° 0,8 mm 2 m/S 744 mmHg 85%
    19:00 +23°C° 0,6 mm 2 m/S 744 mmHg 88%
    20:00 +21°C° 0,6 mm 2 m/S 744 mmHg 91%
    21:00 +20°C° 0,6 mm 2 m/S 744 mmHg 94%
    22:00 +20°C° 0,5 mm 1 m/S 744 mmHg 94%
    23:00 +20°C° 0,5 mm 1 m/S 744 mmHg 94%
    Mehr zeigen